Regional Weather Roundup
Issued by NWS Memphis, TN

Home | Current Version | Previous Version | Text Only | Print | Product List | Glossary On
Versions: 1 2 3 4 5 6 7 8 9 10 11 12 13 14 15 16 17 18 19 20 21 22 23 24 25 26 27 28 29 30 31 32 33 34 35 36 37 38 39 40 41 42 43 44 45 46 47 48 49 50
000
ASUS44 KMEG 222210
RWRMEG
MEMPHIS CWA HOURLY WEATHER ROUNDUP
NATIONAL WEATHER SERVICE MEMPHIS TN
400 PM CST MON DEC 22 2014

...WEST TENNESSEE...

CITY           SKY/WX    TMP DP  RH WIND       PRES   REMARKS
MEMPHIS INTL   LGT RAIN  57  52  82 S12       29.61S
NWS MEMPHIS      N/A     56 N/A N/A MISG        N/A
JACKSON        CLOUDY    55  50  83 SE9G21    29.64F
LEXINGTON      CLOUDY    54  48  82 SE10      29.68F
SAVANNAH       CLOUDY    52  52 100 SE9       29.70F
DYERSBURG      CLOUDY    54  41  62 SE10G17   29.63F
UNION CITY     CLOUDY    52  50  93 SE15      29.61F
PARIS          CLOUDY    52  46  82 SE13      29.66F
HUNTINGDON     CLOUDY    51  48  89 SE9       29.66F


...EASTERN ARKANSAS...

CITY           SKY/WX    TMP DP  RH WIND       PRES   REMARKS
JONESBORO      CLOUDY    53  53 100 S8        29.59S
WEST MEMPHIS   CLOUDY    57  54  89 S13       29.60R
BATESVILLE     CLOUDY    54  50  87 S6        29.57R
NEWPORT        LGT RAIN  53  53 100 S10       29.60R
WALNUT RIDGE   CLOUDY    54  48  82 S12       29.57S
BLYTHEVILLE    LGT RAIN  54  53  97 S8        29.60F
NW BLYTHEVILLE CLOUDY    54  52  94 SE8       29.60  FOG
SEARCY         CLOUDY    54  52  93 S6        29.60R FOG
STUTTGART      CLOUDY    57  54  88 S12       29.60R
PINE BLUFF     CLOUDY    58  52  80 S7        29.59R
MONTICELLO     CLOUDY    59  56  89 S5        29.59S


...NORTH MISSISSIPPI...

CITY           SKY/WX    TMP DP  RH WIND       PRES   REMARKS
TUPELO         CLOUDY    54  52  93 S10       29.69F FOG
OXFORD         CLOUDY    54  50  87 SE9G17    29.66F FOG
OLIVE BRANCH   CLOUDY    55  55 100 SE12G18   29.61F
TUNICA         CLOUDY    55  54  94 SE14      29.62R
CLARKSDALE     CLOUDY    59  57  94 SE14      29.62S
CORINTH        CLOUDY    54  52  94 SE13      29.68F FOG
GRENADA        CLOUDY    55  54  94 SE7       29.66F
GREENWOOD      CLOUDY    61  56  83 S10       29.65S
COLUMBUS       CLOUDY    55  55 100 SE7       29.72F FOG
STARKVILLE     FOG       54  54 100 SE8       29.71S VSB 3/4
GOLDEN TRIANGL FOG       55  54  94 MISG      29.71F VSB 1


...SOUTHEAST MISSOURI...

CITY           SKY/WX    TMP DP  RH WIND       PRES   REMARKS
WEST PLAINS    CLOUDY    49  47  93 S8        29.53S FOG
POPLAR BLUFF   CLOUDY    53  50  89 S10       29.57F
CAPE GIRARDEAU LGT RAIN  52  51  97 S8        29.59S FOG


...NORTHWEST ALABAMA...

CITY           SKY/WX    TMP DP  RH WIND       PRES   REMARKS
MUSCLE SHOALS  CLOUDY    53  50  89 SE8       29.75F


...MIDDLE TENNESSEE...

CITY           SKY/WX    TMP DP  RH WIND       PRES   REMARKS
NASHVILLE      CLOUDY    52  49  89 SE13      29.76F
CLARKSVILLE    CLOUDY    53  47  79 S13G20    29.71F


...WESTERN KENTUCKY...

CITY           SKY/WX    TMP DP  RH WIND       PRES   REMARKS
PADUCAH        CLOUDY    54  49  83 S12G17    29.62F
FORT CAMPBELL  CLOUDY    53  47  82 SE14      29.70S


...CENTRAL ARKANSAS...

CITY           SKY/WX    TMP DP  RH WIND       PRES   REMARKS
LITTLE ROCK    DRIZZLE   57  52  83 S9        29.57S


SKY/WX REPORTED AS FAIR MEANS FEW OR NO CLOUDS BELOW
12 THOUSAND FEET.



USA.gov is the U.S. government's official web portal to all federal, state and local government web resources and services.